Regional Weather Roundup
Issued by NWS

Home | Current Version | Previous Version | Text Only | Print | Product List | Glossary On
Versions: 1 2 3 4 5 6 7 8 9 10 11 12 13 14 15 16 17 18 19 20 21 22 23 24 25 26 27 28 29 30 31 32 33 34 35 36 37 38 39 40 41 42 43 44 45 46 47 48 49 50
000
ASUS44 KLIX 260710
RWRLA
LOUISIANA WEATHER ROUNDUP
NATIONAL WEATHER SERVICE NEW ORLEANS LA
200 AM CDT SAT JUL 26 2014

NOTE: "FAIR" INDICATES FEW OR NO CLOUDS BELOW 12,000 FEET WITH NO
      SIGNIFICANT WEATHER AND/OR OBSTRUCTIONS TO VISIBILITY.
      SKY/WX - SKY CONDITION AND SIGNIFICANT WEATHER.
      TMP - AIR TEMPERATURE.    DP   - DEWPOINT TEMPERATURE.
      RH  - RELATIVE HUMIDITY.  PRES - PRESSURE.
      HX  - HEAT INDEX.         WCI  - WIND CHILL INDEX.

*  THESE STATIONS ARE NOT NWS OR FAA STATIONS AND ARE NOT UNDER
   NWS QUALITY CONTROL.

LAZ040-048-061>063-065-066-069-260800-
SOUTHEAST LOUISIANA

CITY           SKY/WX    TMP DP  RH WIND       PRES   REMARKS
N.O. AUDUBON     N/A     82  76  82 MISG        N/A
N.O. INTL ARPT MOCLDY    79  75  87 SW6       30.01F
N.O. LAKEFRONT MOCLDY    81  76  84 SW9       30.02S
N.O. DOWNTOWN* FAIR      81  72  74 CALM      30.02F
SLIDELL        PTCLDY    78  75  90 CALM      30.01F
BATON ROUGE    MOCLDY    79  74  84 SW6       30.01F
BOOTHVILLE     MOCLDY    83  76  79 SW8       30.02F
BELLE CHASSE   MOCLDY    79  75  87 W3        30.01F
BOGALUSA*      CLOUDY    77  73  88 CALM      30.03S
GALLIANO*      NOT AVBL
NEW ROADS*     FAIR      77  75  92 CALM      30.01F
GONZALES*      FAIR      76  76 100 CALM      30.01S
HAMMOND*       PTCLDY    81  72  74 CALM      30.02F
HOUMA*         PTCLDY    78  73  85 CALM      30.02F
PORT FOURCHON* MOSUNNY   82  77  83 SW8       30.05S

$$

LAZ041-044-053-054-260800-
SOUTHWEST LOUISIANA

CITY           SKY/WX    TMP DP  RH WIND       PRES   REMARKS
LAKE CHARLES   CLEAR     80  76  87 CALM      30.00F
LAFAYETTE      CLEAR     78  75  90 S5        30.01F
PATTERSON      PTCLDY    77  75  94 CALM      30.06S
SALT POINT       N/A     86  77  74 VRB6      30.01F HX  97
NEW IBERIA     CLEAR     78  75  90 SW3       30.02F
CHENAULT AIRPK CLEAR     81  75  83 CALM      30.01F

$$

LAZ027-028-260800-
CENTRAL LOUISIANA

CITY           SKY/WX    TMP DP  RH WIND       PRES   REMARKS
FORT POLK      PTCLDY    79  75  87 VRB3      30.01F
ALEXANDRIA INT CLEAR     78  75  90 SW6       29.98F
ALEXANDRIA     CLEAR     78  75  90 CALM      29.99F

$$

LAZ001-002-260800-
NORTHWEST LOUISIANA

CITY           SKY/WX    TMP DP  RH WIND       PRES   REMARKS
SHREVEPORT     PTCLDY    79  73  82 SW6       29.97F
BARKSDALE AFB  CLEAR     75  74  97 SE5       29.97F
DTN SHREVEPORT CLEAR     80  71  74 S6        29.97F

$$

LAZ014-016-260800-
NORTHEAST LOUISIANA

CITY           SKY/WX    TMP DP  RH WIND       PRES   REMARKS
MONROE         CLEAR     74  72  93 CALM      29.99F FOG
TALLULAH       CLEAR     72  70  93 CALM      29.99F FOG

$$




USA.gov is the U.S. government's official web portal to all federal, state and local government web resources and services.